When you browse on this site, cookies collect data to enhance your experience and personalize the content and advertising you see.
Visit our Privacy Policy to learn more. By continuing to use the site, you agree to this use of cookies and data.
  • En España
  • Lista de países
  • Para 7 días
  • Temperatura del agua
  • Mapa Satelital
  • El tiempo en el mapa
  • Informadores
  • user-avatar
    Iniciar sesión

    Tiempo cada hora Baku

    Hoy, 17 Febrero, Domingo

    Tiempo Temperatura Precipitaciones Viento Presión Humedad
    00:00 +7°C° 0 mm 1 mps 761 mmHg 81%
    01:00 +7°C° 0.3 mm 1 mps 761 mmHg 83%
    02:00 +6°C° 0.3 mm 2 mps 761 mmHg 84%
    03:00 +6°C° 0 mm 1 mps 761 mmHg 86%
    04:00 +4°C° 1.7 mm 3 mps 761 mmHg 83%
    05:00 +3°C° 1.7 mm 6 mps 762 mmHg 80%
    06:00 +1°C° 1.7 mm 8 mps 762 mmHg 78%
    07:00 +2°C° 0.5 mm 7 mps 762 mmHg 76%
    08:00 +3°C° 0.5 mm 7 mps 763 mmHg 75%
    09:00 +3°C° 0 mm 7 mps 763 mmHg 71%
    10:00 +3°C° 0 mm 6 mps 763 mmHg 69%
    11:00 +3°C° 0 mm 6 mps 763 mmHg 68%
    12:00 +3°C° 0 mm 6 mps 763 mmHg 66%
    13:00 +3°C° 0 mm 5 mps 763 mmHg 66%
    14:00 +4°C° 0 mm 4 mps 762 mmHg 67%
    15:00 +5°C° 0 mm 4 mps 762 mmHg 67%
    16:00 +4°C° 0 mm 3 mps 762 mmHg 67%
    17:00 +5°C° 0 mm 2 mps 762 mmHg 68%
    18:00 +5°C° 0 mm 2 mps 762 mmHg 68%
    19:00 +4°C° 0 mm 3 mps 762 mmHg 69%
    20:00 +4°C° 0 mm 4 mps 762 mmHg 70%
    21:00 +5°C° 0 mm 5 mps 762 mmHg 71%
    22:00 +4°C° 0 mm 6 mps 761 mmHg 74%
    23:00 +4°C° 0 mm 7 mps 761 mmHg 77%

    Mañana, 18 Febrero, Lunes

    Tiempo Temperatura Precipitaciones Viento Presión Humedad
    00:00 +5°C° 0 mm 8 mps 760 mmHg 80%
    01:00 +5°C° 0 mm 8 mps 760 mmHg 81%
    02:00 +3°C° 0 mm 9 mps 759 mmHg 81%
    03:00 +3°C° 0 mm 9 mps 759 mmHg 81%
    04:00 +3°C° 0 mm 9 mps 758 mmHg 76%
    05:00 +3°C° 0 mm 9 mps 758 mmHg 71%
    06:00 +3°C° 0 mm 9 mps 757 mmHg 65%
    07:00 +5°C° 0 mm 10 mps 757 mmHg 59%
    08:00 +6°C° 0 mm 11 mps 757 mmHg 53%
    09:00 +7°C° 0 mm 12 mps 757 mmHg 47%
    10:00 +8°C° 0 mm 12 mps 756 mmHg 44%
    11:00 +9°C° 0 mm 12 mps 756 mmHg 41%
    12:00 +12°C° 0 mm 12 mps 755 mmHg 39%
    13:00 +11°C° 0 mm 10 mps 755 mmHg 42%
    14:00 +10°C° 0 mm 9 mps 755 mmHg 46%
    15:00 +10°C° 0 mm 8 mps 755 mmHg 50%
    16:00 +9°C° 0 mm 7 mps 755 mmHg 56%
    17:00 +8°C° 0 mm 7 mps 755 mmHg 61%
    18:00 +8°C° 0 mm 6 mps 756 mmHg 67%
    19:00 +7°C° 0 mm 6 mps 756 mmHg 71%
    20:00 +5°C° 0 mm 6 mps 756 mmHg 76%
    21:00 +5°C° 0 mm 6 mps 757 mmHg 80%
    22:00 +4°C° 0.3 mm 7 mps 757 mmHg 79%
    23:00 +4°C° 0.3 mm 8 mps 758 mmHg 78%

    Pasado mañana, 19 Febrero, Martes

    Tiempo Temperatura Precipitaciones Viento Presión Humedad
    00:00 +2°C° 0.3 mm 9 mps 758 mmHg 77%
    01:00 +2°C° 0.2 mm 9 mps 758 mmHg 74%
    02:00 +2°C° 0.2 mm 9 mps 759 mmHg 71%
    03:00 +1°C° 0.2 mm 9 mps 759 mmHg 69%
    04:00 +1°C° 0.4 mm 10 mps 759 mmHg 69%
    05:00 +1°C° 0.4 mm 10 mps 759 mmHg 70%
    06:00 +1°C° 0.4 mm 10 mps 760 mmHg 71%
    07:00 -1°C° 0.5 mm 11 mps 761 mmHg 71%
    08:00 -1°C° 0.5 mm 12 mps 761 mmHg 71%
    09:00 -1°C° 0.5 mm 13 mps 762 mmHg 72%
    10:00 -1°C° 0.5 mm 13 mps 763 mmHg 72%
    11:00 -2°C° 0.5 mm 13 mps 764 mmHg 73%
    12:00 -2°C° 0.5 mm 13 mps 764 mmHg 73%
    13:00 -2°C° 0.1 mm 13 mps 765 mmHg 70%
    14:00 -1°C° 0.1 mm 13 mps 765 mmHg 66%
    15:00 -1°C° 0.1 mm 12 mps 766 mmHg 62%
    16:00 -1°C° 0 mm 12 mps 766 mmHg 62%
    17:00 -1°C° 0 mm 11 mps 767 mmHg 62%
    18:00 -1°C° 0 mm 11 mps 767 mmHg 61%
    19:00 0°C° 0 mm 10 mps 768 mmHg 61%
    20:00 0°C° 0 mm 9 mps 768 mmHg 61%
    21:00 0°C° 0 mm 8 mps 769 mmHg 61%
    22:00 0°C° 0 mm 7 mps 769 mmHg 62%
    23:00 0°C° 0 mm 7 mps 770 mmHg 62%

    20 Febrero, Miércoles

    Tiempo Temperatura Precipitaciones Viento Presión Humedad
    00:00 +1°C° 0 mm 6 mps 770 mmHg 63%
    01:00 +1°C° 0 mm 6 mps 770 mmHg 63%
    02:00 +1°C° 0 mm 6 mps 770 mmHg 63%
    03:00 +1°C° 0 mm 5 mps 770 mmHg 64%
    04:00 +1°C° 0 mm 5 mps 770 mmHg 65%
    05:00 +1°C° 0 mm 4 mps 771 mmHg 66%
    06:00 +2°C° 0 mm 3 mps 771 mmHg 67%
    07:00 +3°C° 0 mm 2 mps 771 mmHg 66%
    08:00 +3°C° 0 mm 2 mps 772 mmHg 64%
    09:00 +4°C° 0 mm 1 mps 772 mmHg 63%
    10:00 +4°C° 0 mm 2 mps 772 mmHg 62%
    11:00 +5°C° 0 mm 2 mps 772 mmHg 61%
    12:00 +4°C° 0 mm 3 mps 771 mmHg 60%
    13:00 +5°C° 0 mm 4 mps 771 mmHg 61%
    14:00 +5°C° 0 mm 5 mps 770 mmHg 61%
    15:00 +5°C° 0 mm 5 mps 770 mmHg 62%
    16:00 +4°C° 0 mm 6 mps 770 mmHg 64%
    17:00 +4°C° 0 mm 6 mps 770 mmHg 67%
    18:00 +4°C° 0 mm 6 mps 769 mmHg 70%
    19:00 +4°C° 0 mm 6 mps 769 mmHg 71%
    20:00 +4°C° 0 mm 7 mps 769 mmHg 72%
    21:00 +4°C° 0 mm 7 mps 769 mmHg 73%
    22:00 +4°C° 0 mm 7 mps 769 mmHg 73%
    23:00 +5°C° 0 mm 8 mps 768 mmHg 74%

    21 Febrero, Jueves

    Tiempo Temperatura Precipitaciones Viento Presión Humedad
    00:00 +5°C° 0 mm 8 mps 768 mmHg 74%
    01:00 +5°C° 0 mm 8 mps 767 mmHg 74%
    02:00 +5°C° 0 mm 8 mps 767 mmHg 75%
    03:00 +5°C° 0 mm 8 mps 766 mmHg 75%
    04:00 +5°C° 0 mm 9 mps 766 mmHg 76%
    05:00 +5°C° 0 mm 9 mps 766 mmHg 76%
    06:00 +5°C° 0 mm 9 mps 766 mmHg 77%
    07:00 +5°C° 0.1 mm 9 mps 766 mmHg 77%
    08:00 +5°C° 0.1 mm 9 mps 766 mmHg 76%
    09:00 +6°C° 0.1 mm 9 mps 766 mmHg 76%
    10:00 +6°C° 0 mm 9 mps 765 mmHg 73%
    11:00 +6°C° 0 mm 9 mps 765 mmHg 70%
    12:00 +7°C° 0 mm 9 mps 764 mmHg 68%
    13:00 +7°C° 0 mm 9 mps 764 mmHg 65%
    14:00 +7°C° 0 mm 8 mps 764 mmHg 63%
    15:00 +9°C° 0 mm 8 mps 763 mmHg 61%
    16:00 +7°C° 0 mm 8 mps 763 mmHg 63%
    17:00 +8°C° 0 mm 7 mps 763 mmHg 66%
    18:00 +8°C° 0 mm 6 mps 763 mmHg 69%
    19:00 +7°C° 0 mm 6 mps 763 mmHg 71%
    20:00 +7°C° 0 mm 5 mps 763 mmHg 73%
    21:00 +6°C° 0 mm 5 mps 763 mmHg 75%
    22:00 +6°C° 0 mm 5 mps 763 mmHg 74%
    23:00 +6°C° 0 mm 5 mps 762 mmHg 73%

    22 Febrero, Viernes

    Tiempo Temperatura Precipitaciones Viento Presión Humedad
    00:00 +6°C° 0 mm 5 mps 762 mmHg 72%
    01:00 +5°C° 0 mm 5 mps 762 mmHg 72%
    02:00 +4°C° 0 mm 6 mps 761 mmHg 71%
    03:00 +4°C° 0 mm 6 mps 761 mmHg 71%
    04:00 +4°C° 0 mm 6 mps 761 mmHg 68%
    05:00 +4°C° 0 mm 6 mps 761 mmHg 64%
    06:00 +4°C° 0 mm 6 mps 761 mmHg 61%
    07:00 +4°C° 0 mm 7 mps 761 mmHg 55%
    08:00 +5°C° 0 mm 7 mps 761 mmHg 49%
    09:00 +6°C° 0 mm 7 mps 761 mmHg 43%
    10:00 +7°C° 0 mm 8 mps 761 mmHg 44%
    11:00 +9°C° 0 mm 8 mps 760 mmHg 45%
    12:00 +10°C° 0 mm 8 mps 760 mmHg 46%
    13:00 +8°C° 0 mm 10 mps 761 mmHg 49%
    14:00 +7°C° 0 mm 11 mps 761 mmHg 52%
    15:00 +5°C° 0 mm 12 mps 762 mmHg 55%
    16:00 +5°C° 0 mm 12 mps 763 mmHg 60%
    17:00 +4°C° 0 mm 11 mps 763 mmHg 64%
    18:00 +4°C° 0 mm 11 mps 764 mmHg 68%
    19:00 +3°C° 0 mm 10 mps 765 mmHg 70%
    20:00 +4°C° 0 mm 8 mps 765 mmHg 72%
    21:00 +4°C° 0 mm 7 mps 766 mmHg 73%
    22:00 +5°C° 0 mm 5 mps 766 mmHg 73%
    23:00 +5°C° 0 mm 4 mps 766 mmHg 74%
    Mostrar más